COSMOS 1275 DEB, 12735

Orbit data source: Space-Track

COSMOS 1275 DEB, 12735 is space debris in LEO originally from a launch on Thu, 04 Jun 1981 UTC launched from the Plesetsk Missile And Space Complex (PKMTR). Debris objects in space refer to the collection of defunct objects orbiting the Earth. Examples of debris include non-operational satellites, rocket bodies, and fragments generated from explosions, collisions, or faulty payload assembly.

Loading next visibility...
Identifier
12735, 1981-053CC
Orbit
LEO
Country
Flag of CISCIS
Related business
Manufacturer
Unknown
Mission
Spacecraft
Bus & Motor
Unknown
Mass
Unknown
Launch date (UTC)
1981-06-04 (45 years ago)
Launch vehicle
Unknown
Launch site
Plesetsk Missile And Space Complex (PKMTR)
Object type
Payload
Rocket body
Debris
Shape & HBR
Unknown shape, 0.2 m
Radar Cross Section
Medium (>0.1 m² and <1 m²)

Expand to show TLE details & history
Last TLE update: 20 hours ago

TLE from 20 hours ago
0 COSMOS 1275 DEB
1 12735U 81053CC  26235.65310743  .00000278  00000-0  28385-3 0  9998
2 12735  83.1425  16.1937 0100675 174.2382 200.2898 13.70903713243558
Epoch: 2026-08-23T15:40Z
TLE epoch observation values (Epoch: 2026-08-23T15:40:28.481Z)
Latitude
13.99842°
Longitude
170.83817°
Altitude
1,068.236 km
Speed
7.284 km/s
True Right ascension
01h 11m 36s
True Declination
13° 55' 17"
Sunlit
Object was in full shadow at epoch
Visualization orbit readout
Latitude
Unknown
Longitude
Unknown
Altitude
Unknown
Speed
Unknown
Apparent Right ascension
Unknown
Apparent Declination
Unknown
Sunlit
N/A
Visualization observer readout
Local Sidereal Time
02:29:41
Azimuth
Unknown
Elevation
Unknown
Doppler factor
Unknown
Orbital elements
Apogee altitude
1,067.689 km
Perigee altitude
919.261 km
Semi-major axis
7,371.612 km
Eccentricity
0.01007
Inclination
83.1425°
RAAN
16.1937°
Arg. of periapsis
174.2382°
True anomaly
199.89442°
Mean anomaly
200.2898°
Eccentric anomaly
200.09165°
Mean motion
3.42925 °/min
Orbital period
104.98 mins
BSTAR
0.00028385
Loading maneuver chart data...
Computing Atmospheric mass density...

Documentation

Showing up to 5 results
|